Regional Weather Roundup
Issued by NWS

Home | Current Version | Previous Version | Graphics & Text | Print | Product List | Glossary On
Versions: 1 2 3 4 5 6 7 8 9 10 11 12 13 14 15 16 17 18 19 20 21 22 23 24 25 26 27 28 29 30 31 32 33 34 35 36 37 38 39 40 41 42 43 44 45 46 47 48 49 50
000
ASUS43 KOAX 240002
RWRNE

WEATHER ROUNDUP FOR NEBRASKA
NATIONAL WEATHER SERVICE OMAHA NE
700 PM CDT TUE MAY 23 2017

NOTES: SATELLITE DATA IS BEING USED TO AUGMENT CLOUD COVER ABOVE
       12000 FEET.
       "FAIR" INDICATES FEW OR NO CLOUDS BELOW 12,000 FEET WITH NO
       SIGNIFICANT WEATHER AND/OR OBSTRUCTIONS TO VISIBILITY.

  * THESE STATIONS DO NOT REPORT WEATHER SUCH AS RAIN...SNOW OR FOG.

NEZ001>004-019>022-054>056-240100-
NEBRASKA PANHANDLE

CITY           SKY/WX    TMP DP  RH WIND       PRES   REMARKS
SCOTTSBLUFF    MOSUNNY   63  37  38 N12       30.04F
6HR MIN TEMP:  58; 6HR MAX TEMP:  66;

ALLIANCE       MOSUNNY   58  35  42 N18       30.03F
6HR MIN TEMP:  55; 6HR MAX TEMP:  62; 6HR PCP: TRACE;

CHADRON        SUNNY     61  36  39 NE13G22   30.03F
6HR MIN TEMP:  57; 6HR MAX TEMP:  62;

GORDON         MOCLDY    58  34  41 N18G25    30.03S
6HR MIN TEMP:  53; 6HR MAX TEMP:  59;

SIDNEY         MOSUNNY   59  36  42 N16       30.04F
6HR MIN TEMP:  52; 6HR MAX TEMP:  61; 6HR PCP: TRACE;

$$

NEZ057>060-069>072-079>082-240100-
SOUTHWEST NEBRASKA

CITY           SKY/WX    TMP DP  RH WIND       PRES   REMARKS
NORTH PLATTE   CLOUDY    59  36  42 N22G31    29.98F
6HR MIN TEMP:  54; 6HR MAX TEMP:  61;

IMPERIAL       MOSUNNY   58  33  39 N17G28    30.01S
6HR MIN TEMP:  57; 6HR MAX TEMP:  62;

LEXINGTON      CLOUDY    59  41  50 NW25G31   29.96F
MCCOOK         MOSUNNY   61  37  41 N22       29.97F
6HR MIN TEMP:  60; 6HR MAX TEMP:  66;

$$

NEZ005>010-023>029-035>040-094-240100-
NORTH CENTRAL NEBRASKA

CITY           SKY/WX    TMP DP  RH WIND       PRES   REMARKS
VALENTINE      CLOUDY    55  38  52 N13       30.00S
6HR MIN TEMP:  54; 6HR MAX TEMP:  59;

AINSWORTH      CLOUDY    54  43  66 N16       29.98S
BROKEN BOW     PTSUNNY   56  39  53 N23G31    29.95F
6HR MIN TEMP:  52; 6HR MAX TEMP:  58; 6HR PCP: TRACE;

ORD            CLOUDY    53  39  59 N16G26    29.93S
6HR MIN TEMP:  50; 6HR MAX TEMP:  57;

$$

NEZ041-046>049-061>064-073>077-083>087-240100-
SOUTH CENTRAL NEBRASKA

CITY           SKY/WX    TMP DP  RH WIND       PRES   REMARKS
GRAND ISLAND   CLOUDY    54  42  64 NW20      29.92S
6HR MIN TEMP:  51; 6HR MAX TEMP:  59;

AURORA         CLOUDY    55  40  57 N20G26    29.90F
HASTINGS       CLOUDY    54  41  61 N18       29.93S
6HR MIN TEMP:  50; 6HR MAX TEMP:  59; 6HR PCP: TRACE;

KEARNEY *      CLOUDY    55  37  50 N23G29    29.94F
$$

NEZ011>018-030>034-042>045-240100-
NORTHEAST NEBRASKA

CITY           SKY/WX    TMP DP  RH WIND       PRES   REMARKS
NORFOLK        CLOUDY    52  44  74 NW18G24   29.87S
6HR MIN TEMP:  51; 6HR MAX TEMP:  57; 6HR PCP: TRACE;

ALBION         CLOUDY    54  41  62 N12G22    29.91S
BLAIR          CLOUDY    54  48  79 NW12      29.83S
FREMONT        CLOUDY    57  45  65 NW14G20   29.85S
TEKAMAH        CLOUDY    53  48  83 NW13      29.84R
6HR MIN TEMP:  53; 6HR MAX TEMP:  61; 6HR PCP:  0.05;

$$

NEZ050>053-065>068-078-088>093-240100-
SOUTHEAST NEBRASKA

CITY           SKY/WX    TMP DP  RH WIND       PRES   REMARKS
LINCOLN        CLOUDY    58  44  60 NW14      29.87F
6HR MIN TEMP:  53; 6HR MAX TEMP:  61; 6HR PCP: TRACE;

OMAHA EPPLEY   CLOUDY    54  47  77 NW10      29.83S
6HR MIN TEMP:  53; 6HR MAX TEMP:  61; 6HR PCP:  0.02;

BEATRICE       CLOUDY    57  44  62 N17G28    29.86F
FALLS CITY     CLOUDY    58  45  62 N14G24    29.81F
6HR MIN TEMP:  57; 6HR MAX TEMP:  64;

NEBRASKA CITY  CLOUDY    57  44  62 NW15G21   29.83F
$$

NEZ044-045-051>053-067-240100-
OMAHA AREA

CITY           SKY/WX    TMP DP  RH WIND       PRES   REMARKS
OMAHA EPPLEY   CLOUDY    54  47  77 NW10      29.83S
6HR MIN TEMP:  53; 6HR MAX TEMP:  61; 6HR PCP:  0.02;

BLAIR          CLOUDY    54  48  79 NW12      29.83S
FREMONT        CLOUDY    57  45  65 NW14G20   29.85S
OFFUTT AFB     LGT RAIN  53  47  83 NW9       29.82S
WAHOO          LGT RAIN  54  47  76 NW14G20   29.85F
$$



USA.gov is the U.S. government's official web portal to all federal, state and local government web resources and services.